Flag for Russia Weather past 2 weeks in Chelyabinsk, Russia

41 °F

Partly sunny.

Feels Like: 32 °F
Forecast: 34 / 46 °F
Wind: 20 mph from Northwest

Location: Chelyabinsk-Balandino

Current Time: Oct 4, 2015 at 5:17:00 PM

Latest Report: Oct 4, 2015 at 4:30 PM

Visibility: N/A

Pressure: 29.68 "Hg

Humidity: 49%

Dew point: 23 °F

Location of ChelyabinskLocation

Historic Weather in Chelyabinsk — Graph


Chelyabinsk temperature yesterday

Maximum temperature yesterday: 50 °F (at 6:30 PM)
Minimum temperature yesterday: 37 °F (at 4:00 AM)
Average temperature yesterday: 43 °F

Past Weeks' High & Low Weather Summary

High77 °F (Sep 28, 3:00 PM)100% (Sep 20, 3:00 AM)30.39 "Hg (Sep 20, 3:00 AM)
Low34 °F (Oct 1, 10:00 PM)9% (Sep 30, 4:00 PM)28.85 "Hg (Oct 3, 5:30 PM)
Average52 °F67%30.04 "Hg
* Reported Sep 19 4:00 PM — Oct 4 4:00 PM, Chelyabinsk, Weather by CustomWeather, © 2015

Note: Actual official high and low records may vary slightly from our data, if they occured in-between our weather recording intervals... More about our weather records


Chelyabinsk weather history for previous 24 hours

Time TempWeatherWind HumidityBarometerVisibility
4:00 PM
Sun, Oct 4
41 °FPartly sunny.24 mph53%29.68 "HgN/A
3:30 PM41 °FPartly sunny.22 mph49%29.65 "HgN/A
3:00 PM41 °FPartly sunny.22 mph53%29.62 "HgN/A
2:30 PM41 °FPartly sunny.22 mph57%29.62 "HgN/A
2:00 PM41 °FSprinkles. Partly sunny.26 mph61%29.59 "HgN/A
1:30 PM41 °FPartly sunny.22 mph66%29.56 "HgN/A
1:00 PM39 °FSprinkles. Partly sunny.24 mph75%29.53 "HgN/A
12:30 PM39 °FSprinkles. Partly sunny.24 mph75%29.53 "Hg2 mi
12:00 PM43 °FPartly sunny.20 mph57%29.50 "HgN/A
11:30 AM43 °FPartly sunny.17 mph61%29.47 "HgN/A
11:00 AM39 °FSprinkles. Partly sunny.22 mph75%29.47 "HgN/A
10:30 AM43 °FScattered clouds.26 mph57%29.42 "HgN/A
10:00 AM39 °FSprinkles. Scattered clouds.26 mph75%29.42 "HgN/A
9:30 AM41 °FScattered clouds.17 mph66%29.39 "HgN/A
9:00 AM41 °FSprinkles. Passing clouds.20 mph66%29.36 "HgN/A
8:30 AM41 °FPassing clouds.20 mph66%29.36 "HgN/A
8:00 AM39 °FPassing clouds.22 mph70%29.33 "HgN/A
7:30 AM39 °FPassing clouds.20 mph70%29.30 "HgN/A
7:00 AM39 °FPassing clouds.20 mph70%29.27 "HgN/A
6:30 AM41 °FSprinkles. Passing clouds.24 mph70%29.27 "HgN/A
6:00 AM41 °FPassing clouds.24 mph70%29.24 "HgN/A
5:30 AM41 °FPassing clouds.22 mph76%29.21 "HgN/A
5:00 AM41 °FPassing clouds.24 mph76%29.15 "HgN/A
4:30 AM41 °FPassing clouds.24 mph76%29.12 "HgN/A
4:00 AM39 °FPassing clouds.22 mph81%29.09 "HgN/A
3:30 AM39 °FPassing clouds.22 mph87%29.06 "HgN/A
2:30 AM43 °FSprinkles. Passing clouds.20 mph81%28.97 "HgN/A
2:00 AM43 °FSprinkles. Passing clouds.17 mph87%28.94 "HgN/A
1:30 AM45 °FSprinkles. Passing clouds.20 mph76%28.91 "HgN/A
1:00 AM45 °FPassing clouds.17 mph76%28.88 "HgN/A
12:30 AM45 °FPassing clouds.13 mph81%28.88 "HgN/A
12:00 AM43 °FPassing clouds.17 mph81%28.88 "HgN/A
11:30 PM
Sat, Oct 3
43 °FPassing clouds.17 mph81%28.88 "HgN/A
11:00 PM43 °FPassing clouds.20 mph81%28.88 "HgN/A
10:30 PM43 °FPassing clouds.17 mph81%28.88 "HgN/A
10:00 PM45 °FSprinkles. Passing clouds.20 mph71%28.88 "Hg3 mi
9:30 PM45 °FPassing clouds.22 mph71%28.88 "HgN/A
9:00 PM45 °FPassing clouds.20 mph71%28.88 "HgN/A
8:30 PM46 °FPassing clouds.24 mph71%28.88 "HgN/A
8:00 PM46 °FSprinkles. Partly sunny.24 mph71%28.88 "HgN/A
7:30 PM48 °FPartly sunny.20 mph71%28.85 "HgN/A
7:00 PM48 °FSprinkles. Partly sunny.24 mph76%28.85 "HgN/A
6:30 PM50 °FSprinkles. Partly sunny.20 mph71%28.85 "HgN/A
6:00 PM48 °FPartly sunny.20 mph82%28.85 "HgN/A
5:30 PM48 °FPartly sunny.17 mph82%28.85 "HgN/A
5:00 PM46 °FPartly sunny.20 mph87%28.88 "HgN/A
Weather by CustomWeather, © 2015

See weather overviewHow to use our weather pages